Weather in Ludza

Latvia     56°32′35″N   27°42′47″E
temp.,
°C
wind,
m/s
gust,
m/s
humid.,
%
clouds,
%
prec.,
mm/h
press.,
hPa
HPBL,
m
16 may, mon
mon1600:00+5wnw411740 0.0 1014446
03:00+3wnw412840 0.0 1014445
06:00+3wnw412810 0.0 1015473
09:00+9wnw611500 0.0 10141405
12:00+13nw6932100 0.0 10142825
15:00+14nw5830100 0.0 10132711
18:00+12wnw4746100 0.1 10131995
21:00+7nw387654 0.4 1014186
17 may, tue
tue1700:00+4wnw311825 0.0 1015327
03:00+2w399060 0.0 1015257
06:00+2wnw3109279 0.0 1015344
09:00+5nw4887100 0.1 1015703
12:00+8nnw486767 0.3 10151429
15:00+11nnw684795 0.8 10141951
18:00+10n4853100 0.2 10161660
21:00+6n5106782 0.2 10181040
18 may, wed
wed1800:00+5nnw41077100 0.0 1019941
03:00+5nnw41079100 0.0 1020745
06:00+5nnw4978100 0.0 1021723
09:00+8nnw576349 0.0 1022958
12:00+12nnw474687 0.0 10221725
15:00+14nw57387 0.0 10212033
18:00+15nw58426 0.0 10201990
21:00+10wnw4115482 0.0 1021578
19 may, thu
thu1900:00+7w4145952 0.0 1020519
03:00+6w51364100 0.0 1019421
06:00+7w41361100 0.0 1019473
09:00+6w3887100 1.0 1020401
12:00+6w3796100 1.9 1020318
15:00+8w3492100 2.2 1020362
18:00+9w2287100 0.0 1020386
21:00+7sw22989 0.0 102045
20 may, fri
fri2000:00+5s1197100 0.0 102014
03:00+7sse2295100 0.0 101965
06:00+7se249595 0.0 1018127
09:00+10se3579100 0.0 1016429
12:00+13se3565100 0.0 1014951
15:00+13sse3675100 0.3 1012851
18:00+11se2794100 0.6 1011388
21:00+9e1296100 0.9 101173